Weather History for Easton, MD

Change the Weather History Date:

Friday, June 28, 2013

  Actual Average Record
Temperature  
Mean Temperature 78 °F -  
Max Temperature 89 °F 85 °F 98 °F (1959)
Min Temperature 68 °F 65 °F 52 °F (1970)
Cooling Degree Days 14    
Growing Degree Days 28 (Base 50)    
Moisture  
Dew Point 73 °F    
Average Humidity 90    
Maximum Humidity 100    
Minimum Humidity 52    
Precipitation  
Precipitation 0.00 in - - ()
Sea Level Pressure  
Sea Level Pressure 29.62 in    
Wind  
Wind Speed 5 mph (SW)    
Max Wind Speed 13 mph    
Max Gust Speed 18 mph    
Visibility 10 miles    
Events Rain , Thunderstorm    
Averages and records for this station are not official NWS values.
T = Trace of Precipitation, MM = Missing Value Source: NWS Daily Summary

Daily Weather History Graph

Daily Weather History Graph

Search for Another Location

Airport:

Trip Planner

Search our weather history database for the weather conditions in past years. The results will help you decide how hot, cold, wet, or windy it might be!

Date:

Astronomy

Jun. 28, 2013 Rise Set
Actual Time 5:41 AM EDT 8:33 PM EDT
Civil Twilight 5:09 AM EDT 9:05 PM EDT
Nautical Twilight 4:29 AM EDT 9:45 PM EDT
Astronomical Twilight 3:43 AM EDT 10:31 PM EDT
Moon No Moon Rise 11:43 AM EDT (6/28)
Length of Visible Light 15h 55m
Length of Day
14h 51m
Waning Gibbous, 66% of the Moon is Illuminated
Jun 28
Waning Gibbous
Jun 30
Last Quarter
Jul 8
New
Jul 15
First Quarter
Jul 22
Full

Hourly Weather History & Observations

Time (EDT) Temp. Heat Index Dew Point Humidity Pressure Visibility Wind Dir Wind Speed Gust Speed Precip Events Conditions
12:17 AM 74.3 °F - 74.3 °F 100% 29.68 in 10.0 mi WSW 9.2 mph - N/A   Clear
12:37 AM 74.1 °F - 72.9 °F 96% 29.66 in 10.0 mi SW 6.9 mph - N/A   Scattered Clouds
12:57 AM 73.8 °F - 73.0 °F 98% 29.66 in 10.0 mi SW 3.5 mph - N/A   Clear
1:17 AM 73.4 °F - 73.4 °F 100% 29.66 in 10.0 mi Calm Calm - N/A   Clear
1:37 AM 72.9 °F - 72.9 °F 100% 29.65 in 10.0 mi Calm Calm - N/A   Clear
1:57 AM 73.4 °F - 73.4 °F 100% 29.64 in 10.0 mi Calm Calm - N/A   Clear
2:17 AM 73.4 °F - 73.4 °F 100% 29.64 in 10.0 mi Calm Calm - N/A   Clear
2:37 AM 73.4 °F - 73.4 °F 100% 29.63 in 10.0 mi Calm Calm - N/A   Clear
2:57 AM 73.8 °F - 73.8 °F 100% 29.63 in 10.0 mi Calm Calm - N/A   Clear
3:17 AM 74.1 °F - 74.1 °F 100% 29.62 in 10.0 mi Calm Calm - N/A   Clear
3:38 AM 74.5 °F - 74.5 °F 100% 29.62 in 10.0 mi Calm Calm - N/A   Clear
3:58 AM 74.5 °F - 74.5 °F 100% 29.62 in 10.0 mi Calm Calm - N/A   Clear
4:18 AM 74.7 °F - 74.7 °F 100% 29.61 in 10.0 mi WSW 4.6 mph - N/A   Clear
4:38 AM 74.5 °F - 74.5 °F 100% 29.62 in 10.0 mi Calm Calm - N/A   Clear
4:58 AM 74.3 °F - 74.3 °F 100% 29.62 in 10.0 mi WSW 6.9 mph - N/A   Clear
5:18 AM 74.3 °F - 74.3 °F 100% 29.63 in 10.0 mi WSW 5.8 mph - N/A   Clear
5:38 AM 74.3 °F - 74.3 °F 100% 29.63 in 10.0 mi WSW 4.6 mph - N/A   Clear
5:53 AM 73.4 °F - 73.4 °F 100% 29.63 in 10.0 mi SW 5.8 mph - N/A   Scattered Clouds
5:58 AM 73.8 °F - 73.8 °F 100% 29.63 in 10.0 mi WSW 4.6 mph - N/A   Clear
6:18 AM 75.0 °F - 75.0 °F 100% 29.63 in 10.0 mi WSW 4.6 mph - N/A   Clear
6:38 AM 76.3 °F - 76.3 °F 100% 29.64 in 10.0 mi WSW 3.5 mph - N/A   Clear
6:53 AM 77.0 °F - 73.4 °F 89% 29.64 in 10.0 mi SW 5.8 mph - N/A   Scattered Clouds
6:58 AM 77.5 °F - 74.3 °F 90% 29.64 in 10.0 mi WSW 4.6 mph - N/A   Clear
7:18 AM 78.8 °F - 74.5 °F 87% 29.64 in 10.0 mi WSW 4.6 mph - N/A   Clear
7:38 AM 80.2 °F 85.2 °F 74.5 °F 83% 29.64 in 10.0 mi West 5.8 mph - N/A   Scattered Clouds
7:43 AM 79.0 °F - 73.9 °F 84% 29.64 in 10.0 mi WSW 6.9 mph - N/A   Scattered Clouds
7:53 AM 80.6 °F 85.4 °F 73.4 °F 79% 29.64 in 10.0 mi WSW 8.1 mph - N/A   Scattered Clouds
8:50 AM 80.6 °F 85.4 °F 73.4 °F 79% 29.63 in 10.0 mi WSW 4.6 mph - N/A   Scattered Clouds
9:50 AM 82.4 °F 88.2 °F 73.4 °F 74% 29.61 in 10.0 mi SW 4.6 mph - N/A   Scattered Clouds
10:47 AM 82.4 °F 88.2 °F 73.4 °F 74% 29.62 in 10.0 mi WSW 4.6 mph - N/A   Scattered Clouds
11:50 AM 86.0 °F 91.8 °F 71.6 °F 62% 29.63 in 10.0 mi West 6.9 mph - N/A   Mostly Cloudy
12:45 PM 84.2 °F 88.4 °F 69.8 °F 62% 29.62 in 10.0 mi West 5.8 mph - N/A   Mostly Cloudy
1:50 PM 87.8 °F 93.8 °F 71.6 °F 58% 29.60 in 10.0 mi SW 12.7 mph - N/A   Mostly Cloudy
2:52 PM 89.6 °F 94.7 °F 69.8 °F 52% 29.58 in 10.0 mi SSW 11.5 mph - N/A   Scattered Clouds
3:50 PM 87.8 °F 93.8 °F 71.6 °F 58% 29.54 in 10.0 mi SSW 11.5 mph 18.4 mph N/A   Scattered Clouds
4:51 PM 84.2 °F 90.9 °F 73.4 °F 70% 29.56 in 10.0 mi SSW 5.8 mph 13.8 mph N/A   Mostly Cloudy
5:23 PM 82.4 °F 88.2 °F 73.4 °F 74% 29.58 in 8.0 mi WSW 8.1 mph - N/A Rain , Thunderstorm Thunderstorms and Rain
5:51 PM 75.2 °F - 75.2 °F 100% 29.56 in 10.0 mi South 10.4 mph - N/A Rain Light Rain
6:20 PM 75.2 °F - 75.2 °F 100% 29.57 in 10.0 mi South 5.8 mph - N/A   Scattered Clouds
6:50 PM 75.2 °F - 73.4 °F 94% 29.57 in 10.0 mi SSE 8.1 mph - N/A   Mostly Cloudy
7:05 PM 75.2 °F - 71.6 °F 89% 29.59 in 7.0 mi West 6.9 mph - N/A Rain Heavy Rain
7:50 PM 68.0 °F - 68.0 °F 100% 29.61 in 4.0 mi NNW 8.1 mph - N/A Rain Rain
8:50 PM 68.0 °F - 68.0 °F 100% 29.62 in 6.0 mi SSW 10.4 mph - N/A Rain Rain
11:00 PM 68.0 °F - 68.0 °F 100% 29.62 in 10.0 mi South 8.1 mph - N/A   Mostly Cloudy
11:20 PM 68.0 °F - 68.0 °F 100% 29.62 in 10.0 mi Calm Calm - N/A   Mostly Cloudy
11:40 PM 68.0 °F - 68.0 °F 100% 29.61 in 10.0 mi Calm Calm - N/A   Scattered Clouds